Regional Weather Roundup
Issued by NWS

Home | Current Version | Previous Version | Graphics & Text | Print | Product List | Glossary Off
Versions: 1 2 3 4 5 6 7 8 9 10 11 12 13 14 15 16 17 18 19 20 21 22 23 24 25 26 27 28 29 30 31 32 33 34 35 36 37 38 39 40 41 42 43 44 45 46 47 48 49 50

000
ASUS43 KTOP 241108
RWRKS

WEATHER ROUNDUP FOR KANSAS
NATIONAL WEATHER SERVICE GOODLAND KS
600 AM CDT THU APR 24 2014

NOTE:  "FAIR" INDICATES FEW OR NO CLOUDS BELOW 12,000 FEET WITH NO
SIGNIFICANT WEATHER AND/OR OBSTRUCTIONS TO VISIBILITY.

KSZ001>006-013>018-027>032-041>047-241200-
NORTHWEST KANSAS

CITY           SKY/WX    TMP DP  RH WIND       PRES   REMARKS
GOODLAND       CLOUDY    49  32  52 N16       29.86R
HAYS           PTCLDY    52  45  76 N10       29.73S
HILL CITY      CLOUDY    53  41  63 NW10      29.77R
RUSSELL        PTCLDY    52  47  83 NW13      29.70R
$$

KSZ061>065-074>080-084>089-241200-
SOUTHWEST KANSAS

CITY           SKY/WX    TMP DP  RH WIND       PRES   REMARKS
DODGE CITY     MOCLDY    50  41  71 N15       29.74F
ELKHART          N/A     46  30  53 NW20        N/A
GARDEN CITY    CLOUDY    51  35  54 N23G33    29.81S
GREAT BEND     CLOUDY    54  46  76 N13       29.72R
LIBERAL        MOCLDY    54  30  40 N31G40    29.85R
PRATT          CLOUDY    52  50  93 N18       29.73R
$$

KSZ066>073-081>083-090>101-241200-
SOUTHEAST KANSAS

CITY           SKY/WX    TMP DP  RH WIND       PRES   REMARKS
CHANUTE        CLOUDY    67  54  63 S14       29.63R
COFFEYVILLE    CLOUDY    70  55  59 S17G32    29.64R
HUTCHINSON     LGT RAIN  57  53  86 N16G23    29.65S
MEDICINE LODGE   N/A     57  51  80 N24G31    29.66R
NEWTON         CLOUDY    57  50  77 N15       29.67S
PARSONS        CLOUDY    68  54  60 S10       29.66R
WICHITA INTL   TSTM      65  59  81 NW15      29.63R
WICHITA JABRA  CLOUDY    65  59  81 W6        29.63R
WICHITA MCCONL CLOUDY    65  64  95 W9        29.64R
WINFIELD       CLOUDY    67  59  75 S16G24    29.62R
$$

KSZ007>012-019>026-033>040-048>060-102>105-241200-
NORTHEAST KANSAS

CITY           SKY/WX    TMP DP  RH WIND       PRES   REMARKS
CONCORDIA      CLOUDY    52  51  97 NW13      29.64F
EMPORIA        LGT RAIN  65  57  75 S21G31    29.59R
LAWRENCE       LGT RAIN  69  56  62 S10       29.63S
MANHATTAN      LGT RAIN  56  32  40 N6        29.64S
OLATHE IND     CLOUDY    64  51  62 VRB3      29.65R
OLATHE EXE     CLOUDY    62  48  60 E9        29.65R
SALINA         CLOUDY    57  54  89 NW21      29.66S
TOPEKA BILLARD TSTM      68  58  70 S9        29.62R
TOPEKA FORBES  TSTM      63  59  87 E14       29.61F FOG
$$



USA.gov is the U.S. government's official web portal to all federal, state and local government web resources and services.